Weather Roundup
Issued by NWS Chicago, IL

Home | Current Version | Previous Version | Graphics & Text | Print | Product List | Glossary On
Versions: 1 2 3 4 5 6 7 8 9 10 11 12 13 14 15 16 17 18 19 20 21 22 23 24 25 26 27 28 29 30 31 32 33 34 35 36 37 38 39 40 41 42 43 44 45 46 47 48 49 50
000
NZUS59 KLOT 280100
HRRLOT

CHICAGO AREA WEATHER ROUNDUP
NATIONAL WEATHER SERVICE CHICAGO/ROMEOVILLE IL
800 PM CDT WED AUG 27 2014

NOTE: "FAIR" INDICATES FEW OR NO CLOUDS BELOW 12,000 FEET WITH NO
SIGNIFICANT WEATHER AND/OR OBSTRUCTIONS TO VISIBILITY.

* THESE STATIONS ARE NOT UNDER NWS QUALITY CONTROL. THEY ALSO MAY NOT
  REPORT WEATHER SUCH AS PRECIPITATION OR FOG.

ILZ005-006-012>014-019>023-280200-
NORTHEAST ILLINOIS

CITY           SKY/WX    TMP DP  RH WIND       PRES   REMARKS
OHARE          MOCLDY    70  59  68 NE9       30.10S
MIDWAY         MOCLDY    72  62  71 E10       30.10F
AURORA         MOCLDY    71  63  75 NE6       30.10S
WAUKEGAN       MOCLDY    65  61  87 NE6       30.11S
DUPAGE AIRPORT MOCLDY    70  61  73 NE8       30.10S
WHEELING       MOCLDY    70  61  73 CALM      30.12S
NORTHERLY IS     N/A     70  61  73 NE12        N/A
$$

WIZ051-052-058>065-066-070>072-280200-
SOUTHEAST WISCONSIN

CITY           SKY/WX    TMP DP  RH WIND       PRES   REMARKS
MILWAUKEE      MOCLDY    66  60  81 E7        30.12F
KENOSHA*       MOCLDY    64  61  90 NE7       30.12F
RACINE*        MOCLDY    66  61  84 NE7       30.13F
WAUKESHA       MOCLDY    64  61  88 E7        30.13F
$$

INZ001>003-010>013-019-020-280200-
NORTHWEST INDIANA

CITY           SKY/WX    TMP DP  RH WIND       PRES   REMARKS
GARY*          MOCLDY    70  59  68 NE7       30.11F
MICHIGAN CITY* NOT AVBL
RENSSELAER*    NOT AVBL
VALPARAISO     MOCLDY    65  58  78 NE3       30.10F
$$

LMZ740>746-280200-
SOUTHERN LAKE MICHIGAN

STATION/POSITION TIME  SKY/WX   TEMP WIND        PRES    VSBY
                                AIR  DIR/SP/G
                 (UTC)          (F)  (DEG/KT/KT) (MB)    (MI)
HARRISON CRIB    0000            69   50/ 10/ 13   N/A
BURNHAM HARBOR   0100            70   60/  9/ 12   N/A
CALUMET HARBOR   0000            70   30/  8/ 10 1018.2F
BURNS HARBOR     NOT AVBL
MICHIGAN CITY    0000            70   20/ 16/ 18   N/A
$$

ABBREVIATIONS USED IN REMARKS
   TC - TEMPERATURE IN CELSIUS
  WCI - WIND CHILL INDEX
   HX - HEAT INDEX
  VSB - VISIBILITY
$$



USA.gov is the U.S. government's official web portal to all federal, state and local government web resources and services.